Find Starlink 33859

NORAD ID: 63640 Int'l Des: 2025-083 Owner: SPXS Country: US Constellation: starlink operational
LEOCIRCULAR

現在のビュー

3D地球を読み込み中...

About Starlink 33859

Starlink 33859 (NORAD 63640) is a starlink constellation satellite (v2 mini) launched Apr 25, 2025 by SPXS of US. It operates in LEO, CIRCULAR orbit with a mass of 575.00 kg.

Starlink 33859について

説明を読み込み中...

次回通過

Passes for default location (London). Set your location on the main map for personalized predictions.

高度履歴

Loading altitude history...

軌道要素

1 63640U 25083G 26170.63491488 .00013597 00000-0 50255-3 0 9991
2 63640 42.9992 149.8601 0001261 274.2822 85.7886 15.27591124 65653
Epoch: Jun 19, 2026 • Age: 14 hours

現在のステータス

高度 494.9 km
速度 7.62 km/s
衛星直下点 -41.71°S, 90.88°E
打ち上げ日 Apr 25, 2025
運用期間 1.1 years
タイプ internet

技術仕様

分類 Payload
質量 575.00 kg
乾燥質量 530.00 kg
総質量 575.00 kg
長さ 0.30 m
直径 4.10 m
スパン 29.00 m
形状 Box + pan
製造者 SPXS
バスタイプ Starlink V2MO
フェーズステータス In Orbit
所有者/国 SPXS/US

Most Searched